Flag for Germany Weather past 2 weeks in Velbert, North Rhine-Westphalia, Germany

Now
78 °F

Overcast.


Feels Like: 80 °F
Forecast: 60 / 71 °F
Wind: 3 mph from East

Location: Essen

Current Time: Jul 29, 2014 at 5:06:05 PM

Latest Report: Jul 29, 2014 at 4:00 PM


Visibility: 11 mi

Pressure: 29.79 "Hg

Humidity: 62%

Dew point: 64 °F

Location of VelbertLocation

Historic Weather in Velbert — Graph

°F

Velbert temperature yesterday

Maximum temperature yesterday: 79 °F (at 2:00 PM)
Minimum temperature yesterday: 65 °F (at 4:00 AM)
Average temperature yesterday: 69 °F

Past Weeks' High & Low Weather Summary

 TemperatureHumidityPressure
High92 °F (Jul 19, 5:00 PM)100% (Jul 26, 6:00 AM)30.19 "Hg (Jul 26, 6:00 AM)
Low56 °F (Jul 15, 6:00 AM)27% (Jul 19, 1:00 PM)29.75 "Hg (Jul 20, 5:00 AM)
Average71 °F70%29.98 "Hg
* Reported Jul 14 4:00 PM — Jul 29 4:00 PM, Velbert, Weather by CustomWeather, © 2014

Note: Actual official high and low records may vary slightly from our data, if they occured in-between our weather recording intervals... More about our weather records

Advertising

Velbert weather history for previous 24 hours

 ConditionsComfort  
Time TempWeatherWind HumidityBarometerVisibility
4:00 PM
Jul 29
78 °FOvercast.3 mph62%29.79 "Hg11 mi
3:00 PM75 °FOvercast.5 mph66%29.81 "Hg9 mi
2:00 PM77 °FOvercast.5 mph60%29.81 "Hg9 mi
1:00 PM77 °FPartly sunny.5 mph69%29.82 "Hg6 mi
12:00 PM74 °FPassing clouds.5 mph72%29.83 "Hg4 mi
11:00 AM71 °FPassing clouds.3 mph80%29.84 "Hg2 mi
10:00 AM67 °FFog.3 mph91%29.84 "Hg2 mi
9:00 AM65 °FFog.3 mph96%29.83 "Hg1 mi
8:00 AM65 °FFog.3 mph94%29.83 "Hg2 mi
7:00 AM63 °FFog.1 mph98%29.84 "Hg1 mi
6:00 AM63 °FOvercast.2 mph97%29.83 "Hg2 mi
5:00 AM62 °FFog.1 mph98%29.84 "Hg1 mi
4:00 AM63 °FFog.2 mph96%29.85 "Hg3 mi
3:00 AM63 °FFog.3 mph95%29.85 "Hg4 mi
2:00 AM64 °FClear.2 mph93%29.84 "Hg6 mi
1:00 AM65 °FFog.2 mph95%29.85 "Hg4 mi
12:00 AM65 °FOvercast.3 mph93%29.86 "Hg4 mi
11:00 PM
Jul 28
66 °FOvercast.3 mph90%29.85 "Hg6 mi
10:00 PM66 °FLow clouds.3 mph93%29.88 "Hg5 mi
9:00 PM67 °FScattered clouds.3 mph91%29.86 "Hg5 mi
8:00 PM68 °FPartly sunny.3 mph92%29.85 "Hg3 mi
7:00 PM69 °FDrizzle. Low clouds.1 mph90%29.84 "Hg4 mi
6:00 PM71 °FOvercast.1 mph73%29.84 "Hg16 mi
5:00 PM72 °FOvercast.3 mph71%29.84 "Hg13 mi
Weather by CustomWeather, © 2014

See weather overviewHow to use our weather pages